| time (UTC) | temp F | wind direction | speed knots | gust knots | rain 1hr in | rain 24hr in | rain mn in | humidity % | barometer mb |
| 20260510044009 | 58 | 181 | 0.0 | 0.0 | 0.00 | 0.00 | 0.00 | 94 | 1011.4 |
| 20260510043603 | 58 | 181 | 0.0 | 0.0 | 0.00 | 0.00 | 0.00 | 94 | 1011.4 |
| 20260510043003 | 58 | 181 | 0.0 | 0.0 | 0.00 | 0.00 | 0.00 | 94 | 1011.5 |
| 20260510042509 | 58 | 181 | 0.0 | 0.0 | 0.00 | 0.00 | 0.00 | 94 | 1011.4 |
| 20260510042103 | 58 | 181 | 0.0 | 0.0 | 0.00 | 0.00 | 0.00 | 94 | 1011.2 |
| 20260510041503 | 58 | 181 | 0.0 | 0.0 | 0.00 | 0.00 | 0.00 | 94 | 1011.4 |
| 20260510041002 | 59 | 181 | 0.0 | 0.0 | 0.00 | 0.00 | 0.00 | 94 | 1011.4 |
| 20260510040503 | 59 | 181 | 0.0 | 0.0 | 0.00 | 0.00 | 0.00 | 93 | 1011.4 |
| 20260510040010 | 59 | 181 | 0.0 | 0.0 | 0.00 | 0.00 | 0.00 | 93 | 1011.4 |
| 20260510035604 | 59 | 181 | 0.0 | 0.0 | 0.00 | 0.00 | 0.00 | 93 | 1011.3 |
| 20260510035003 | 59 | 181 | 0.0 | 0.0 | 0.00 | 0.00 | 0.00 | 93 | 1011.4 |
| 20260510034509 | 59 | 181 | 0.0 | 0.0 | 0.00 | 0.00 | 0.00 | 93 | 1011.3 |
| 20260510034103 | 59 | 181 | 0.0 | 0.0 | 0.00 | 0.00 | 0.00 | 93 | 1011.4 |
| 20260510033503 | 59 | 181 | 0.0 | 0.0 | 0.00 | 0.00 | 0.00 | 93 | 1011.3 |
| 20260510033008 | 59 | 181 | 0.0 | 0.0 | 0.00 | 0.00 | 0.00 | 93 | 1011.3 |
| 20260510032603 | 59 | 181 | 0.0 | 0.0 | 0.00 | 0.00 | 0.00 | 93 | 1011.4 |
| 20260510032003 | 59 | 181 | 0.0 | 0.0 | 0.00 | 0.00 | 0.00 | 93 | 1011.3 |
| 20260510031509 | 59 | 181 | 0.0 | 0.0 | 0.00 | 0.00 | 0.00 | 92 | 1011.3 |
| 20260510031104 | 59 | 181 | 0.0 | 0.0 | 0.00 | 0.00 | 0.00 | 92 | 1011.3 |
| 20260510030503 | 59 | 181 | 0.0 | 0.0 | 0.00 | 0.00 | 0.00 | 92 | 1011.4 |
| 20260510030009 | 59 | 181 | 0.0 | 0.0 | 0.00 | 0.00 | 0.00 | 92 | 1011.3 |
| 20260510025602 | 60 | 181 | 0.0 | 0.0 | 0.00 | 0.00 | 0.00 | 92 | 1011.3 |
| 20260510025003 | 60 | 181 | 0.0 | 0.0 | 0.00 | 0.00 | 0.00 | 92 | 1011.2 |
| 20260510024511 | 60 | 181 | 0.0 | 0.0 | 0.00 | 0.00 | 0.00 | 92 | 1011.2 |
| 20260510024102 | 60 | 181 | 0.0 | 0.0 | 0.00 | 0.00 | 0.00 | 92 | 1011.2 |
| 20260510023503 | 60 | 181 | 0.0 | 0.0 | 0.00 | 0.00 | 0.00 | 91 | 1011.2 |
| 20260510023009 | 60 | 181 | 0.0 | 0.0 | 0.00 | 0.00 | 0.00 | 91 | 1011.1 |
| 20260510022603 | 60 | 181 | 0.0 | 0.0 | 0.00 | 0.00 | 0.00 | 91 | 1011.1 |
| 20260510022003 | 60 | 181 | 0.0 | 0.0 | 0.00 | 0.00 | 0.00 | 91 | 1011.0 |
| 20260510021513 | 61 | 181 | 0.0 | 0.0 | 0.00 | 0.00 | 0.00 | 91 | 1011.0 |
| 20260510021103 | 61 | 181 | 0.0 | 0.0 | 0.00 | 0.00 | 0.00 | 90 | 1010.9 |
| 20260510020502 | 61 | 181 | 0.0 | 0.0 | 0.00 | 0.00 | 0.00 | 90 | 1011.0 |
| 20260510020008 | 61 | 181 | 0.0 | 0.0 | 0.00 | 0.00 | 0.00 | 90 | 1010.9 |
| 20260510015604 | 61 | 181 | 0.0 | 0.0 | 0.00 | 0.00 | 0.00 | 90 | 1010.9 |
| 20260510015002 | 62 | 181 | 0.0 | 0.0 | 0.00 | 0.00 | 0.00 | 89 | 1010.8 |
| 20260510014508 | 62 | 181 | 0.0 | 0.0 | 0.00 | 0.00 | 0.00 | 88 | 1010.7 |
| 20260510014103 | 62 | 181 | 0.0 | 0.0 | 0.00 | 0.00 | 0.00 | 88 | 1010.7 |
| 20260510013503 | 62 | 181 | 0.0 | 0.0 | 0.00 | 0.00 | 0.00 | 88 | 1010.6 |
| 20260510013009 | 62 | 181 | 0.0 | 0.0 | 0.00 | 0.00 | 0.00 | 88 | 1010.5 |
| 20260510012602 | 63 | 181 | 0.0 | 0.0 | 0.00 | 0.00 | 0.00 | 87 | 1010.5 |
| 20260510012002 | 63 | 181 | 0.0 | 0.0 | 0.00 | 0.00 | 0.00 | 87 | 1010.4 |
| 20260510011510 | 63 | 181 | 0.0 | 0.0 | 0.00 | 0.00 | 0.00 | 87 | 1010.4 |
| 20260510011102 | 63 | 181 | 0.0 | 0.0 | 0.00 | 0.00 | 0.00 | 86 | 1010.4 |
| 20260510010503 | 64 | 181 | 0.0 | 0.0 | 0.00 | 0.00 | 0.00 | 86 | 1010.2 |
| 20260510010009 | 64 | 181 | 0.0 | 0.0 | 0.00 | 0.00 | 0.00 | 86 | 1010.0 |
| 20260510005603 | 64 | 181 | 0.0 | 0.0 | 0.00 | 0.00 | 0.00 | 85 | 1009.9 |
| 20260510005004 | 64 | 181 | 0.0 | 0.0 | 0.00 | 0.00 | 0.00 | 85 | 1009.7 |
| 20260510004509 | 64 | 181 | 0.0 | 0.0 | 0.00 | 0.00 | 0.00 | 84 | 1009.7 |
| 20260510004104 | 65 | 181 | 0.0 | 0.0 | 0.00 | 0.00 | 0.00 | 84 | 1009.6 |
| 20260510003503 | 65 | 181 | 0.0 | 0.0 | 0.00 | 0.00 | 0.00 | 84 | 1009.6 |
| 20260510003020 | 65 | 181 | 0.0 | 0.0 | 0.00 | 0.00 | 0.00 | 84 | 1009.5 |
| 20260510002604 | 66 | 181 | 0.0 | 0.0 | 0.00 | 0.00 | 0.00 | 83 | 1009.5 |
| 20260510002003 | 66 | 181 | 0.0 | 0.0 | 0.00 | 0.00 | 0.00 | 82 | 1009.6 |
| 20260510001508 | 67 | 181 | 0.0 | 0.0 | 0.00 | 0.00 | 0.00 | 81 | 1009.5 |
| 20260510001104 | 67 | 181 | 0.0 | 0.0 | 0.00 | 0.00 | 0.00 | 80 | 1009.3 |
| 20260510000503 | 67 | 181 | 0.0 | 0.0 | 0.00 | 0.00 | 0.00 | 79 | 1009.2 |
| 20260510000008 | 68 | 181 | 0.0 | 0.0 | 0.00 | 0.00 | 0.00 | 78 | 1009.2 |
| 20260509235602 | 68 | 181 | 0.0 | 0.0 | 0.00 | 0.00 | 0.00 | 77 | 1009.2 |
| 20260509235003 | 68 | 181 | 0.0 | 0.0 | 0.00 | 0.00 | 0.00 | 77 | 1009.2 |
| 20260509234513 | 68 | 181 | 0.0 | 0.0 | 0.00 | 0.00 | 0.00 | 77 | 1009.1 |
| 20260509234103 | 68 | 181 | 0.0 | 0.0 | 0.00 | 0.00 | 0.00 | 77 | 1009.1 |
| 20260509233503 | 69 | 169 | 0.0 | 0.0 | 0.00 | 0.00 | 0.00 | 77 | 1009.0 |
| 20260509233020 | 69 | 169 | 0.0 | 0.0 | 0.00 | 0.00 | 0.00 | 76 | 1009.0 |
| 20260509232605 | 69 | 169 | 0.0 | 0.0 | 0.00 | 0.00 | 0.00 | 76 | 1009.1 |
| 20260509232002 | 69 | 169 | 0.0 | 1.7 | 0.00 | 0.00 | 0.00 | 76 | 1009.1 |
| 20260509231508 | 69 | 179 | 0.0 | 0.0 | 0.00 | 0.00 | 0.00 | 76 | 1009.0 |
| 20260509231103 | 70 | 179 | 0.0 | 0.0 | 0.00 | 0.00 | 0.00 | 76 | 1008.8 |
| 20260509230503 | 70 | 176 | 0.0 | 0.0 | 0.00 | 0.00 | 0.00 | 75 | 1008.8 |
| 20260509230011 | 70 | 152 | 0.0 | 0.0 | 0.00 | 0.00 | 0.00 | 76 | 1008.9 |
| 20260509225604 | 70 | 185 | 0.0 | 0.0 | 0.00 | 0.00 | 0.00 | 76 | 1008.9 |
| 20260509225003 | 70 | 200 | 0.0 | 0.0 | 0.00 | 0.00 | 0.00 | 75 | 1008.9 |
| 20260509224508 | 70 | 183 | 0.0 | 2.6 | 0.00 | 0.00 | 0.00 | 73 | 1008.8 |
| 20260509224103 | 71 | 216 | 0.0 | 2.6 | 0.00 | 0.00 | 0.00 | 74 | 1008.7 |
| 20260509223503 | 71 | 222 | 0.0 | 0.0 | 0.00 | 0.00 | 0.00 | 73 | 1008.6 |
| 20260509223011 | 71 | 225 | 0.0 | 0.0 | 0.00 | 0.00 | 0.00 | 72 | 1008.6 |
| 20260509222602 | 71 | 161 | 0.0 | 0.0 | 0.00 | 0.00 | 0.00 | 73 | 1008.7 |
| 20260509222004 | 71 | 218 | 0.0 | 0.0 | 0.00 | 0.00 | 0.00 | 73 | 1008.4 |
| 20260509221512 | 71 | 218 | 0.0 | 0.0 | 0.00 | 0.00 | 0.00 | 71 | 1008.4 |
| 20260509221106 | 71 | 214 | 0.0 | 0.0 | 0.00 | 0.00 | 0.00 | 70 | 1008.4 |
| 20260509220502 | 72 | 200 | 0.0 | 0.9 | 0.00 | 0.00 | 0.00 | 70 | 1008.6 |
| 20260509220010 | 72 | 183 | 0.0 | 0.9 | 0.00 | 0.00 | 0.00 | 71 | 1008.7 |
| 20260509215602 | 72 | 167 | 0.0 | 0.0 | 0.00 | 0.00 | 0.00 | 71 | 1008.6 |
| 20260509215110 | 72 | 203 | 0.0 | 0.0 | 0.00 | 0.00 | 0.00 | 72 | 1008.6 |
| 20260509214508 | 72 | 169 | 0.0 | 0.0 | 0.00 | 0.00 | 0.00 | 70 | 1008.6 |
| 20260509214101 | 72 | 169 | 0.0 | 0.0 | 0.00 | 0.00 | 0.00 | 69 | 1008.5 |
| 20260509213502 | 72 | 202 | 0.0 | 7.8 | 0.00 | 0.00 | 0.00 | 69 | 1008.5 |
| 20260509213008 | 72 | 169 | 0.0 | 7.8 | 0.00 | 0.00 | 0.00 | 67 | 1008.5 |
| 20260509212606 | 73 | 131 | 0.9 | 7.8 | 0.00 | 0.00 | 0.00 | 67 | 1008.4 |
| 20260509212002 | 73 | 159 | 0.0 | 1.7 | 0.00 | 0.00 | 0.00 | 67 | 1008.4 |
| 20260509211508 | 73 | 228 | 0.0 | 4.3 | 0.00 | 0.00 | 0.00 | 66 | 1008.5 |
| 20260509211103 | 74 | 139 | 0.0 | 4.3 | 0.00 | 0.00 | 0.00 | 67 | 1008.4 |
| 20260509210505 | 74 | 169 | 0.0 | 5.2 | 0.00 | 0.00 | 0.00 | 66 | 1008.5 |
| 20260509210009 | 74 | 160 | 0.0 | 7.8 | 0.00 | 0.00 | 0.00 | 66 | 1008.3 |
| 20260509205605 | 74 | 207 | 0.0 | 7.8 | 0.00 | 0.00 | 0.00 | 65 | 1008.3 |
| 20260509205003 | 74 | 169 | 0.0 | 7.0 | 0.00 | 0.00 | 0.00 | 66 | 1008.3 |
| 20260509204508 | 74 | 144 | 0.0 | 4.3 | 0.00 | 0.00 | 0.00 | 66 | 1008.2 |
| 20260509204103 | 74 | 176 | 0.0 | 8.7 | 0.00 | 0.00 | 0.00 | 66 | 1008.2 |
| 20260509203503 | 74 | 189 | 0.0 | 8.7 | 0.00 | 0.00 | 0.00 | 67 | 1008.2 |
| 20260509203012 | 73 | 198 | 0.0 | 5.2 | 0.00 | 0.00 | 0.00 | 68 | 1008.4 |
| 20260509202604 | 73 | 181 | 0.9 | 5.2 | 0.00 | 0.00 | 0.00 | 66 | 1008.6 |
| 20260509202002 | 73 | 181 | 0.0 | 5.2 | 0.00 | 0.00 | 0.00 | 66 | 1008.6 |
| 20260509201509 | 73 | 149 | 0.0 | 0.9 | 0.00 | 0.00 | 0.00 | 68 | 1008.6 |
| 20260509201102 | 73 | 187 | 0.0 | 0.0 | 0.00 | 0.00 | 0.00 | 67 | 1008.5 |
| 20260509200502 | 73 | 235 | 0.0 | 5.2 | 0.00 | 0.00 | 0.00 | 67 | 1008.6 |
| 20260509200009 | 73 | 219 | 0.0 | 5.2 | 0.00 | 0.00 | 0.00 | 68 | 1008.6 |
| 20260509195603 | 73 | 199 | 0.0 | 0.9 | 0.00 | 0.00 | 0.00 | 69 | 1008.6 |
| 20260509195002 | 72 | 175 | 0.0 | 4.3 | 0.00 | 0.00 | 0.00 | 68 | 1008.6 |
| 20260509194508 | 71 | 193 | 0.0 | 4.3 | 0.00 | 0.00 | 0.00 | 71 | 1008.8 |
| 20260509194102 | 71 | 201 | 0.9 | 4.3 | 0.00 | 0.00 | 0.00 | 71 | 1008.7 |
| 20260509193502 | 72 | 164 | 1.7 | 4.3 | 0.00 | 0.00 | 0.00 | 70 | 1008.9 |
| 20260509193008 | 71 | 189 | 0.0 | 5.2 | 0.00 | 0.00 | 0.00 | 71 | 1009.0 |
| 20260509192605 | 71 | 160 | 0.0 | 5.2 | 0.00 | 0.00 | 0.00 | 74 | 1008.9 |
| 20260509192006 | 69 | 220 | 0.0 | 3.5 | 0.00 | 0.00 | 0.00 | 79 | 1009.1 |
| 20260509191509 | 69 | 228 | 0.0 | 7.0 | 0.00 | 0.00 | 0.00 | 79 | 1009.2 |
| 20260509191104 | 68 | 206 | 0.0 | 7.8 | 0.00 | 0.00 | 0.00 | 77 | 1009.2 |
| 20260509190502 | 68 | 172 | 0.9 | 7.8 | 0.00 | 0.00 | 0.00 | 77 | 1009.3 |
| 20260509190008 | 68 | 188 | 0.0 | 1.7 | 0.00 | 0.00 | 0.00 | 78 | 1009.3 |
| 20260509185604 | 68 | 188 | 0.0 | 1.7 | 0.00 | 0.00 | 0.00 | 78 | 1009.4 |
| 20260509185004 | 67 | 174 | 0.0 | 3.5 | 0.00 | 0.00 | 0.00 | 77 | 1009.3 |
| 20260509184512 | 68 | 176 | 0.0 | 3.5 | 0.00 | 0.00 | 0.00 | 76 | 1009.4 |
| 20260509184102 | 68 | 181 | 0.0 | 0.9 | 0.00 | 0.00 | 0.00 | 78 | 1009.4 |
| 20260509183502 | 68 | 247 | 0.0 | 4.3 | 0.00 | 0.00 | 0.00 | 78 | 1009.2 |
| 20260509183013 | 68 | 166 | 0.0 | 4.3 | 0.00 | 0.00 | 0.00 | 76 | 1009.2 |
| 20260509182603 | 68 | 190 | 0.0 | 1.7 | 0.00 | 0.00 | 0.00 | 78 | 1009.3 |
| 20260509182003 | 68 | 190 | 0.0 | 1.7 | 0.00 | 0.00 | 0.00 | 75 | 1009.6 |
| 20260509181508 | 68 | 242 | 0.0 | 0.9 | 0.00 | 0.00 | 0.00 | 75 | 1009.6 |
| 20260509181103 | 68 | 202 | 0.0 | 2.6 | 0.00 | 0.00 | 0.00 | 75 | 1009.6 |
| 20260509180503 | 68 | 202 | 0.0 | 6.1 | 0.00 | 0.00 | 0.00 | 74 | 1009.7 |
| 20260509180009 | 69 | 153 | 0.0 | 6.1 | 0.00 | 0.00 | 0.00 | 73 | 1009.7 |
| 20260509175603 | 69 | 221 | 1.7 | 6.1 | 0.00 | 0.00 | 0.00 | 74 | 1009.8 |
| 20260509175002 | 69 | 181 | 0.9 | 4.3 | 0.00 | 0.00 | 0.00 | 73 | 1009.8 |
| 20260509174511 | 69 | 158 | 0.9 | 2.6 | 0.00 | 0.00 | 0.00 | 73 | 1009.8 |
| 20260509174101 | 69 | 187 | 0.0 | 7.0 | 0.00 | 0.00 | 0.00 | 74 | 1009.7 |
| 20260509173502 | 69 | 203 | 1.7 | 9.6 | 0.00 | 0.00 | 0.00 | 74 | 1009.9 |
| 20260509173008 | 69 | 191 | 0.9 | 9.6 | 0.00 | 0.00 | 0.00 | 72 | 1009.8 |
| 20260509172603 | 69 | 290 | 1.7 | 9.6 | 0.00 | 0.00 | 0.00 | 74 | 1009.8 |
| 20260509172002 | 69 | 161 | 3.5 | 6.1 | 0.00 | 0.00 | 0.00 | 72 | 1009.8 |
| 20260509171509 | 69 | 172 | 1.7 | 6.1 | 0.00 | 0.00 | 0.00 | 73 | 1009.9 |
| 20260509171104 | 69 | 167 | 1.7 | 6.1 | 0.00 | 0.00 | 0.00 | 73 | 1009.9 |
| 20260509170504 | 69 | 174 | 0.9 | 5.2 | 0.00 | 0.00 | 0.00 | 75 | 1010.0 |
| 20260509170008 | 69 | 173 | 0.0 | 9.6 | 0.00 | 0.00 | 0.00 | 75 | 1009.9 |
| 20260509165603 | 69 | 278 | 1.7 | 9.6 | 0.00 | 0.00 | 0.00 | 74 | 1010.0 |
| 20260509165002 | 69 | 151 | 1.7 | 6.1 | 0.00 | 0.00 | 0.00 | 75 | 1010.2 |
| 20260509164508 | 68 | 172 | 1.7 | 6.1 | 0.00 | 0.00 | 0.00 | 76 | 1010.3 |
| 20260509164106 | 68 | 178 | 1.7 | 6.1 | 0.00 | 0.00 | 0.00 | 76 | 1010.4 |
| 20260509163506 | 68 | 152 | 2.6 | 5.2 | 0.00 | 0.00 | 0.00 | 77 | 1010.6 |
| 20260509163009 | 68 | 188 | 2.6 | 5.2 | 0.00 | 0.00 | 0.00 | 75 | 1010.7 |
| 20260509162604 | 69 | 206 | 0.9 | 5.2 | 0.00 | 0.00 | 0.00 | 74 | 1010.8 |
| 20260509162109 | 69 | 207 | 0.0 | 5.2 | 0.00 | 0.00 | 0.00 | 75 | 1010.9 |
| 20260509161509 | 69 | 200 | 0.9 | 6.1 | 0.00 | 0.00 | 0.00 | 73 | 1010.8 |
| 20260509161102 | 69 | 142 | 0.9 | 6.1 | 0.00 | 0.00 | 0.00 | 75 | 1010.8 |
| 20260509160502 | 68 | 225 | 2.6 | 8.7 | 0.00 | 0.00 | 0.00 | 76 | 1010.8 |
| 20260509160009 | 68 | 157 | 2.6 | 7.8 | 0.00 | 0.00 | 0.00 | 76 | 1010.8 |
| 20260509155604 | 68 | 176 | 2.6 | 6.1 | 0.00 | 0.00 | 0.00 | 77 | 1010.8 |
| 20260509155002 | 68 | 172 | 1.7 | 6.1 | 0.00 | 0.00 | 0.00 | 77 | 1010.8 |
| 20260509154515 | 68 | 210 | 0.9 | 5.2 | 0.00 | 0.00 | 0.00 | 80 | 1010.8 |
| 20260509154104 | 67 | 192 | 1.7 | 5.2 | 0.00 | 0.00 | 0.00 | 79 | 1010.7 |
| 20260509153504 | 67 | 169 | 0.9 | 6.1 | 0.00 | 0.00 | 0.00 | 80 | 1010.7 |
| 20260509153012 | 66 | 178 | 0.9 | 6.1 | 0.00 | 0.00 | 0.00 | 82 | 1010.7 |
| 20260509152603 | 66 | 205 | 2.6 | 5.2 | 0.00 | 0.00 | 0.00 | 83 | 1010.8 |
| 20260509152002 | 65 | 163 | 0.9 | 5.2 | 0.00 | 0.00 | 0.00 | 84 | 1010.9 |
| 20260509151509 | 64 | 200 | 1.7 | 5.2 | 0.00 | 0.00 | 0.00 | 85 | 1010.9 |
| 20260509151102 | 64 | 206 | 1.7 | 4.3 | 0.00 | 0.00 | 0.00 | 85 | 1011.0 |
| 20260509150503 | 64 | 161 | 0.9 | 3.5 | 0.00 | 0.00 | 0.00 | 87 | 1010.8 |
| 20260509150009 | 63 | 146 | 0.0 | 5.2 | 0.00 | 0.00 | 0.00 | 87 | 1010.9 |
| 20260509145603 | 63 | 182 | 0.0 | 8.7 | 0.00 | 0.00 | 0.00 | 87 | 1011.1 |
| 20260509145005 | 63 | 157 | 0.0 | 0.0 | 0.00 | 0.00 | 0.00 | 87 | 1011.0 |
| 20260509144508 | 63 | 256 | 0.0 | 3.5 | 0.00 | 0.00 | 0.00 | 87 | 1010.8 |
| 20260509144103 | 63 | 167 | 0.0 | 7.0 | 0.00 | 0.00 | 0.00 | 87 | 1010.8 |
| 20260509143502 | 62 | 178 | 0.9 | 7.8 | 0.00 | 0.00 | 0.00 | 88 | 1010.8 |
| 20260509143009 | 62 | 177 | 2.6 | 5.2 | 0.00 | 0.00 | 0.00 | 89 | 1011.0 |
| 20260509142605 | 62 | 172 | 1.7 | 5.2 | 0.00 | 0.00 | 0.00 | 89 | 1010.9 |
| 20260509142002 | 61 | 195 | 0.0 | 6.1 | 0.00 | 0.00 | 0.00 | 89 | 1011.1 |
| 20260509141510 | 61 | 202 | 0.9 | 6.1 | 0.00 | 0.00 | 0.00 | 89 | 1011.1 |
| 20260509141103 | 61 | 224 | 0.0 | 4.3 | 0.00 | 0.00 | 0.00 | 89 | 1011.1 |
| 20260509140502 | 61 | 200 | 0.9 | 3.5 | 0.00 | 0.00 | 0.00 | 89 | 1011.3 |
| 20260509140008 | 61 | 200 | 0.0 | 3.5 | 0.00 | 0.00 | 0.00 | 90 | 1011.5 |
| 20260509135603 | 60 | 184 | 0.9 | 3.5 | 0.00 | 0.00 | 0.00 | 89 | 1011.4 |
| 20260509135002 | 60 | 175 | 0.0 | 1.7 | 0.00 | 0.00 | 0.00 | 91 | 1011.3 |
| 20260509134508 | 60 | 175 | 0.0 | 4.3 | 0.00 | 0.00 | 0.00 | 90 | 1011.4 |
| 20260509134103 | 59 | 175 | 0.9 | 4.3 | 0.00 | 0.00 | 0.00 | 91 | 1011.4 |
| 20260509133503 | 59 | 174 | 0.0 | 0.0 | 0.00 | 0.00 | 0.00 | 90 | 1011.6 |
| 20260509133013 | 59 | 167 | 0.0 | 0.0 | 0.00 | 0.00 | 0.00 | 91 | 1011.8 |
| 20260509132604 | 59 | 167 | 0.0 | 3.5 | 0.00 | 0.00 | 0.00 | 91 | 1012.0 |
| 20260509132002 | 58 | 200 | 0.0 | 0.0 | 0.00 | 0.00 | 0.00 | 91 | 1012.2 |
| 20260509131509 | 58 | 200 | 0.0 | 5.2 | 0.00 | 0.00 | 0.00 | 92 | 1012.2 |
| 20260509131101 | 58 | 196 | 0.0 | 5.2 | 0.00 | 0.00 | 0.00 | 92 | 1012.2 |
| 20260509130502 | 57 | 227 | 0.0 | 0.0 | 0.00 | 0.00 | 0.00 | 93 | 1012.2 |
| 20260509130009 | 57 | 229 | 0.0 | 0.0 | 0.00 | 0.00 | 0.00 | 95 | 1012.4 |
| 20260509125602 | 56 | 202 | 0.0 | 0.0 | 0.00 | 0.00 | 0.00 | 95 | 1012.4 |
| 20260509125004 | 56 | 202 | 0.0 | 4.3 | 0.00 | 0.00 | 0.00 | 97 | 1012.3 |
| 20260509124509 | 55 | 205 | 0.0 | 4.3 | 0.00 | 0.00 | 0.00 | 97 | 1012.3 |
| 20260509124103 | 54 | 188 | 0.0 | 1.7 | 0.00 | 0.00 | 0.00 | 97 | 1012.4 |
| 20260509123503 | 53 | 183 | 0.0 | 0.0 | 0.00 | 0.00 | 0.00 | 97 | 1012.3 |
| 20260509123010 | 53 | 183 | 0.0 | 0.0 | 0.00 | 0.00 | 0.00 | 97 | 1012.2 |
| 20260509122601 | 52 | 183 | 0.0 | 0.9 | 0.00 | 0.00 | 0.00 | 97 | 1012.3 |
| 20260509122002 | 52 | 193 | 0.0 | 5.2 | 0.00 | 0.00 | 0.00 | 97 | 1012.4 |
| 20260509121508 | 51 | 193 | 0.0 | 5.2 | 0.00 | 0.00 | 0.00 | 97 | 1012.1 |
| 20260509121104 | 50 | 217 | 0.0 | 5.2 | 0.00 | 0.00 | 0.00 | 97 | 1012.1 |
| 20260509120503 | 49 | 197 | 0.0 | 0.0 | 0.00 | 0.00 | 0.00 | 97 | 1011.9 |
| 20260509120010 | 49 | 197 | 0.0 | 0.0 | 0.00 | 0.00 | 0.00 | 97 | 1012.1 |
| 20260509115602 | 48 | 197 | 0.0 | 0.9 | 0.00 | 0.00 | 0.00 | 97 | 1012.1 |
| 20260509115108 | 48 | 197 | 0.0 | 0.9 | 0.00 | 0.00 | 0.00 | 96 | 1012.3 |
| 20260509114508 | 47 | 197 | 0.0 | 0.0 | 0.00 | 0.00 | 0.00 | 96 | 1012.1 |
| 20260509114103 | 47 | 197 | 0.0 | 0.0 | 0.00 | 0.00 | 0.00 | 96 | 1011.9 |
| 20260509113503 | 46 | 197 | 0.0 | 0.0 | 0.00 | 0.00 | 0.00 | 95 | 1012.0 |
| 20260509113010 | 46 | 197 | 0.0 | 0.0 | 0.00 | 0.00 | 0.00 | 95 | 1011.9 |
| 20260509112601 | 46 | 197 | 0.0 | 0.0 | 0.00 | 0.00 | 0.00 | 95 | 1012.0 |
| 20260509112003 | 46 | 197 | 0.0 | 0.0 | 0.00 | 0.00 | 0.00 | 95 | 1012.0 |
| 20260509111508 | 46 | 197 | 0.0 | 0.0 | 0.00 | 0.00 | 0.00 | 95 | 1012.0 |
| 20260509111103 | 46 | 197 | 0.0 | 0.0 | 0.00 | 0.00 | 0.00 | 95 | 1012.0 |
| 20260509110501 | 46 | 197 | 0.0 | 0.0 | 0.00 | 0.00 | 0.00 | 95 | 1012.0 |
| 20260509110012 | 46 | 197 | 0.0 | 0.0 | 0.00 | 0.00 | 0.00 | 95 | 1012.1 |
| 20260509105602 | 46 | 197 | 0.0 | 0.0 | 0.00 | 0.00 | 0.00 | 95 | 1012.0 |
| 20260509105003 | 46 | 197 | 0.0 | 0.0 | 0.00 | 0.00 | 0.00 | 95 | 1012.0 |
| 20260509104508 | 46 | 197 | 0.0 | 0.0 | 0.00 | 0.00 | 0.00 | 95 | 1011.9 |
| 20260509104108 | 46 | 197 | 0.0 | 0.0 | 0.00 | 0.00 | 0.00 | 95 | 1011.9 |
| 20260509103502 | 46 | 197 | 0.0 | 0.0 | 0.00 | 0.00 | 0.00 | 94 | 1011.7 |
| 20260509103014 | 46 | 197 | 0.0 | 0.0 | 0.00 | 0.00 | 0.00 | 94 | 1011.5 |
| 20260509102602 | 46 | 197 | 0.0 | 0.0 | 0.00 | 0.00 | 0.00 | 94 | 1011.4 |
| 20260509102001 | 46 | 197 | 0.0 | 0.0 | 0.00 | 0.00 | 0.00 | 94 | 1011.4 |
| 20260509101509 | 46 | 197 | 0.0 | 0.0 | 0.00 | 0.00 | 0.00 | 94 | 1011.4 |
| 20260509101104 | 46 | 197 | 0.0 | 0.0 | 0.00 | 0.00 | 0.00 | 94 | 1011.3 |
| 20260509100503 | 46 | 197 | 0.0 | 0.0 | 0.00 | 0.00 | 0.00 | 94 | 1011.3 |
| 20260509100014 | 46 | 197 | 0.0 | 0.0 | 0.00 | 0.00 | 0.00 | 94 | 1011.2 |
| 20260509095607 | 46 | 197 | 0.0 | 0.0 | 0.00 | 0.00 | 0.00 | 94 | 1011.2 |
| 20260509095106 | 46 | 197 | 0.0 | 0.0 | 0.00 | 0.00 | 0.00 | 94 | 1011.1 |
| 20260509094507 | 46 | 197 | 0.0 | 0.0 | 0.00 | 0.00 | 0.00 | 94 | 1011.2 |
| 20260509094010 | 46 | 197 | 0.0 | 0.0 | 0.00 | 0.00 | 0.00 | 94 | 1011.1 |
| 20260509093605 | 46 | 197 | 0.0 | 0.0 | 0.00 | 0.00 | 0.00 | 94 | 1011.1 |
| 20260509093004 | 46 | 197 | 0.0 | 0.0 | 0.00 | 0.00 | 0.00 | 94 | 1011.2 |
| 20260509092516 | 46 | 197 | 0.0 | 0.0 | 0.00 | 0.00 | 0.00 | 94 | 1011.3 |
| 20260509092103 | 46 | 197 | 0.0 | 0.0 | 0.00 | 0.00 | 0.00 | 93 | 1011.3 |
| 20260509091504 | 46 | 197 | 0.0 | 0.0 | 0.00 | 0.00 | 0.00 | 93 | 1011.5 |
| 20260509091014 | 46 | 197 | 0.0 | 0.0 | 0.00 | 0.00 | 0.00 | 93 | 1011.7 |
| 20260509090605 | 47 | 197 | 0.0 | 0.0 | 0.00 | 0.00 | 0.00 | 93 | 1011.6 |
| 20260509090006 | 47 | 197 | 0.0 | 0.0 | 0.00 | 0.00 | 0.00 | 93 | 1011.6 |
| 20260509085509 | 47 | 197 | 0.0 | 0.0 | 0.00 | 0.00 | 0.00 | 93 | 1011.7 |
| 20260509085105 | 47 | 197 | 0.0 | 0.0 | 0.00 | 0.00 | 0.00 | 94 | 1011.7 |
| 20260509084504 | 47 | 197 | 0.0 | 0.0 | 0.00 | 0.00 | 0.00 | 93 | 1011.6 |
| 20260509084013 | 47 | 197 | 0.0 | 0.0 | 0.00 | 0.00 | 0.00 | 93 | 1011.6 |
| 20260509083605 | 47 | 197 | 0.0 | 0.0 | 0.00 | 0.00 | 0.00 | 93 | 1011.5 |
| 20260509083010 | 47 | 197 | 0.0 | 0.0 | 0.00 | 0.00 | 0.00 | 93 | 1011.6 |
| 20260509082511 | 47 | 197 | 0.0 | 0.0 | 0.00 | 0.00 | 0.00 | 93 | 1011.5 |
| 20260509082106 | 47 | 197 | 0.0 | 0.0 | 0.00 | 0.00 | 0.00 | 93 | 1011.6 |
| 20260509081511 | 47 | 197 | 0.0 | 0.0 | 0.00 | 0.00 | 0.00 | 93 | 1011.5 |
| 20260509081010 | 47 | 197 | 0.0 | 0.0 | 0.00 | 0.00 | 0.00 | 93 | 1011.6 |
| 20260509080604 | 47 | 197 | 0.0 | 0.0 | 0.00 | 0.00 | 0.00 | 93 | 1011.7 |
| 20260509080003 | 47 | 197 | 0.0 | 0.9 | 0.00 | 0.00 | 0.00 | 93 | 1011.7 |
| 20260509075510 | 47 | 197 | 0.0 | 0.9 | 0.00 | 0.00 | 0.00 | 93 | 1011.7 |
| 20260509075105 | 47 | 197 | 0.0 | 0.9 | 0.00 | 0.00 | 0.00 | 93 | 1011.8 |
| 20260509074509 | 48 | 197 | 0.0 | 0.9 | 0.00 | 0.00 | 0.00 | 92 | 1011.8 |
| 20260509074010 | 48 | 197 | 0.0 | 0.0 | 0.00 | 0.00 | 0.00 | 92 | 1012.0 |
| 20260509073604 | 48 | 197 | 0.0 | 0.0 | 0.00 | 0.00 | 0.00 | 92 | 1012.0 |
| 20260509073005 | 48 | 197 | 0.0 | 0.0 | 0.00 | 0.00 | 0.00 | 92 | 1012.1 |
| 20260509072510 | 48 | 197 | 0.0 | 0.0 | 0.00 | 0.00 | 0.00 | 92 | 1012.0 |
| 20260509072103 | 48 | 197 | 0.0 | 0.0 | 0.00 | 0.00 | 0.00 | 92 | 1012.0 |
| 20260509071504 | 48 | 197 | 0.0 | 0.0 | 0.00 | 0.00 | 0.00 | 92 | 1012.0 |
| 20260509071010 | 48 | 197 | 0.0 | 0.0 | 0.00 | 0.00 | 0.00 | 91 | 1012.1 |
| 20260509070604 | 48 | 197 | 0.0 | 0.0 | 0.00 | 0.00 | 0.00 | 91 | 1012.2 |
| 20260509070002 | 48 | 197 | 0.0 | 0.9 | 0.00 | 0.00 | 0.00 | 91 | 1012.2 |
| 20260509065509 | 49 | 197 | 0.0 | 0.9 | 0.00 | 0.00 | 0.00 | 91 | 1012.3 |
| 20260509065103 | 49 | 197 | 0.0 | 0.0 | 0.00 | 0.00 | 0.00 | 91 | 1012.3 |
| 20260509064504 | 49 | 197 | 0.0 | 0.0 | 0.00 | 0.00 | 0.00 | 90 | 1012.3 |
| 20260509064008 | 49 | 197 | 0.0 | 0.0 | 0.00 | 0.00 | 0.00 | 90 | 1012.2 |
| 20260509063605 | 49 | 197 | 0.0 | 0.0 | 0.00 | 0.00 | 0.00 | 90 | 1012.3 |
| 20260509063004 | 49 | 197 | 0.0 | 0.0 | 0.00 | 0.00 | 0.00 | 90 | 1012.4 |
| 20260509062511 | 49 | 197 | 0.0 | 0.0 | 0.00 | 0.00 | 0.00 | 90 | 1012.5 |
| 20260509062105 | 49 | 197 | 0.0 | 0.0 | 0.00 | 0.00 | 0.00 | 90 | 1012.5 |
| 20260509061504 | 49 | 197 | 0.0 | 0.0 | 0.00 | 0.00 | 0.00 | 90 | 1012.6 |
| 20260509061010 | 49 | 197 | 0.0 | 0.0 | 0.00 | 0.00 | 0.00 | 90 | 1012.6 |
| 20260509060606 | 49 | 197 | 0.0 | 0.0 | 0.00 | 0.00 | 0.00 | 90 | 1012.8 |
| 20260509060004 | 50 | 197 | 0.0 | 0.0 | 0.00 | 0.00 | 0.00 | 89 | 1012.9 |
| 20260509055510 | 50 | 197 | 0.0 | 0.0 | 0.00 | 0.00 | 0.00 | 89 | 1012.9 |
| 20260509055105 | 50 | 197 | 0.0 | 0.0 | 0.00 | 0.00 | 0.00 | 89 | 1012.9 |
| 20260509054503 | 50 | 197 | 0.0 | 0.0 | 0.00 | 0.00 | 0.00 | 89 | 1013.0 |
| 20260509054009 | 50 | 197 | 0.0 | 0.0 | 0.00 | 0.00 | 0.00 | 89 | 1013.1 |
| 20260509053604 | 50 | 197 | 0.0 | 0.0 | 0.00 | 0.00 | 0.00 | 88 | 1013.2 |
| 20260509053003 | 50 | 197 | 0.0 | 0.0 | 0.00 | 0.00 | 0.00 | 88 | 1013.3 |
| 20260509052509 | 50 | 197 | 0.0 | 0.0 | 0.00 | 0.00 | 0.00 | 89 | 1013.4 |
| 20260509052104 | 50 | 197 | 0.0 | 0.0 | 0.00 | 0.00 | 0.00 | 88 | 1013.4 |
| 20260509051504 | 50 | 197 | 0.0 | 0.0 | 0.00 | 0.00 | 0.00 | 88 | 1013.5 |
| 20260509051010 | 50 | 197 | 0.0 | 0.0 | 0.00 | 0.00 | 0.00 | 88 | 1013.5 |
| 20260509050603 | 50 | 197 | 0.0 | 0.0 | 0.00 | 0.00 | 0.00 | 88 | 1013.6 |
| 20260509050006 | 51 | 197 | 0.0 | 0.0 | 0.00 | 0.00 | 0.00 | 88 | 1013.6 |
| 20260509045509 | 51 | 197 | 0.0 | 0.0 | 0.00 | 0.00 | 0.00 | 88 | 1013.7 |
| 20260509045103 | 51 | 197 | 0.0 | 0.0 | 0.00 | 0.00 | 0.00 | 88 | 1013.7 |
| 20260509044504 | 51 | 197 | 0.0 | 0.0 | 0.00 | 0.00 | 0.00 | 88 | 1013.8 |